Miscellaneous Local Product
Issued by NWS Hastings, NE

Home | Current Version | Previous Version | Graphics & Text | Print | Product List | Glossary On
Versions: 1 2 3 4 5 6 7 8 9 10 11 12 13 14 15 16 17 18 19 20 21 22 23 24 25 26 27 28 29 30 31 32 33 34 35 36 37 38 39 40 41 42 43 44 45 46 47 48 49 50
309
AXUS43 KGID 231502
MISGRI

GID CWA HOURLY WEATHER ROUNDUP
NATIONAL WEATHER SERVICE HASTINGS NE
1000 AM CDT THU MAR 23 2017

NOTE: "FAIR" INDICATES FEW OR NO CLOUDS BELOW 12,000 FEET WITH NO
SIGNIFICANT WEATHER AND/OR OBSTRUCTIONS TO VISIBILITY.

...SOUTH CENTRAL NEBRASKA...

CITY           SKY/WX    TMP DP  RH WIND       PRES   REMARKS
GRAND ISLAND   CLOUDY    48  48 100 S23G29    29.82F FOG
HASTINGS       CLOUDY    49  47  93 S17G26    29.81F FOG
KEARNEY        CLOUDY    48  46  93 SE17      29.79F
ORD            CLOUDY    47  42  83 SE12G23   29.77F HAZE
YORK           PTSUNNY   50  45  81 S21G28    29.84F
AURORA         CLOUDY    49  45  87 SE24G30   29.82F
LEXINGTON      CLOUDY    49  48  95 S17       29.75F FOG
HOLDREGE       FOG       49  48  96 SE20G25   29.77F VSB 1
HEBRON         CLOUDY    53  46  76 SE20G26   29.88F

...NEBRASKA PANHANDLE...

CITY           SKY/WX    TMP DP  RH WIND       PRES   REMARKS
CHADRON        SUNNY     49  38  65 W5        29.65F
ALLIANCE       CLOUDY    39  37  92 S7        29.68S FOG     WCI  34
SCOTTSBLUFF    SUNNY     42  34  73 CALM      29.69S
SIDNEY         CLOUDY    46  39  76 SW5       29.68F

...WESTERN AND NORTH CENTRAL NEBRASKA...

CITY           SKY/WX    TMP DP  RH WIND       PRES   REMARKS
VALENTINE      CLOUDY    47  37  68 S13       29.70F
AINSWORTH      CLOUDY    46  41  84 S15G21    29.72F
ONEILL         CLOUDY    49  39  68 S20G25    29.78F
BROKEN BOW     LGT RAIN  47  32  56 S13       29.75F
IMPERIAL       SUNNY     52  46  80 S15       29.69F
NORTH PLATTE   CLOUDY    47  46  97 SE6       29.73S FOG
MCCOOK         FOG       50  50 100 E7        29.72F VSB<1/4

...EASTERN NEBRASKA...

CITY           SKY/WX    TMP DP  RH WIND       PRES   REMARKS
NORFOLK        CLOUDY    47  35  63 SE17      29.84F
SO SIOUX CITY  CLOUDY    46  30  53 SE16      29.90F
TEKAMAH        CLOUDY    48  32  53 SE20      29.93F
COLUMBUS       CLOUDY    50  41  71 SE20G25   29.87F
ALBION         CLOUDY    49  43  78 SE16G23   29.82F
OMAHA EPPLEY   CLOUDY    50  34  54 SE17      29.95F
OFFUTT AFB     CLOUDY    50  33  52 SE16      29.95F
MILLARD        CLOUDY    52  36  55 SE15G23   29.94F
LINCOLN        CLOUDY    53  38  56 SE18G29   29.92F
NEBRASKA CITY  CLOUDY    50  27  40 SE17G23   29.96F
BEATRICE       CLOUDY    55  40  58 SE16G23   29.91F
FALLS CITY     CLOUDY    53  32  44 SE14G23   29.98F

...NORTHERN KANSAS...

CITY           SKY/WX    TMP DP  RH WIND       PRES   REMARKS
GOODLAND       CLOUDY    50  48  93 S18       29.70F FOG
HILL CITY      CLOUDY    57  57 100 S9        29.76F FOG
NORTON         CLOUDY    54  50  87 SE14G21   29.74F FOG
PHILLIPSBURG   CLOUDY    55  55 100 SE10      29.78F
HAYS             N/A     60  55  83 S23G29    29.77F
RUSSELL        CLOUDY    58  54  86 S24G35    29.79F
CONCORDIA      CLOUDY    56  49  77 SE22G33   29.86F
SALINA         CLOUDY    61  51  70 S20G26    29.88F
TOPEKA         MOSUNNY   59  43  55 SE16G24   30.00F



USA.gov is the U.S. government's official web portal to all federal, state and local government web resources and services.